Flag for Italy Weather past 2 weeks in Palermo, Italy

Now
81 °F

Passing clouds.


Feels Like: 82 °F
Forecast: 71 / 84 °F
Wind: 8 mph from Southwest

Location: Palermo / Punta Raisi

Current Time: Jul 26, 2014 at 5:13:48 AM

Latest Report: Jul 26, 2014 at 4:50 AM


Visibility: N/A

Pressure: 29.86 "Hg

Humidity: 58%

Dew point: 64 °F

Location of PalermoLocation

Historic Weather in Palermo — Graph

°F

Palermo temperature yesterday

Maximum temperature yesterday: 88 °F (at 2:50 PM)
Minimum temperature yesterday: 70 °F (at 5:50 AM)
Average temperature yesterday: 79 °F

Past Weeks' High & Low Weather Summary

 TemperatureHumidityPressure
High93 °F (Jul 20, 5:20 PM)89% (Jul 17, 7:20 AM)30.07 "Hg (Jul 17, 7:20 AM)
Low68 °F (Jul 14, 3:20 AM)25% (Jul 21, 4:50 AM)29.80 "Hg (Jul 23, 2:50 AM)
Average76 °F73%29.97 "Hg
* Reported Jul 11 3:20 AM — Jul 26 3:50 AM, Palermo, Weather by CustomWeather, © 2014

Note: Actual official high and low records may vary slightly from our data, if they occured in-between our weather recording intervals... More about our weather records

Advertising

Palermo weather history for previous 24 hours

 ConditionsComfort  
Time TempWeatherWind HumidityBarometerVisibility
3:50 AM
Jul 26
81 °FPassing clouds.8 mph66%29.83 "HgN/A
3:20 AM79 °FClear.14 mph79%29.89 "Hg10 mi
2:50 AM82 °FClear.15 mph55%29.86 "Hg10 mi
2:20 AM84 °FClear.6 mph40%29.86 "Hg10 mi
1:50 AM79 °FClear.10 mph61%29.95 "Hg10 mi
1:20 AM81 °FClear.17 mph74%29.95 "Hg10 mi
12:50 AM79 °FClear.3 mph65%29.89 "Hg10 mi
12:20 AM79 °FClear.6 mph79%29.89 "Hg10 mi
11:50 PM
Jul 25
79 °FPassing clouds.5 mph74%29.89 "HgN/A
11:20 PM79 °FPassing clouds.3 mph58%29.89 "HgN/A
10:50 PM79 °FClear.2 mph61%29.89 "Hg10 mi
10:20 PM79 °FClear.5 mph70%29.92 "Hg10 mi
9:50 PM79 °FClear.9 mph74%29.92 "Hg10 mi
9:20 PM79 °FSunny.10 mph84%29.89 "Hg10 mi
8:50 PM81 °FSunny.6 mph70%29.89 "Hg10 mi
8:20 PM86 °FSunny.13 mph35%29.89 "Hg10 mi
7:50 PM86 °FSunny.12 mph43%29.89 "Hg10 mi
7:20 PM86 °FSunny.10 mph46%29.92 "Hg10 mi
6:50 PM82 °FSunny.10 mph62%29.92 "Hg10 mi
6:20 PM82 °FSunny.7 mph66%29.92 "Hg10 mi
5:50 PM82 °FPassing clouds.7 mph70%29.95 "HgN/A
5:20 PM81 °FSunny.13 mph74%29.95 "Hg10 mi
4:50 PM82 °FSunny.13 mph70%29.95 "Hg10 mi
4:20 PM86 °FSunny.14 mph55%29.92 "Hg10 mi
3:50 PM88 °FSunny.15 mph49%29.92 "Hg10 mi
3:20 PM88 °FSunny.16 mph46%29.92 "Hg10 mi
2:50 PM88 °FSunny.15 mph49%29.92 "Hg10 mi
2:20 PM86 °FSunny.15 mph59%29.92 "Hg10 mi
1:50 PM86 °FSunny.15 mph55%29.92 "Hg10 mi
1:20 PM86 °FSunny.14 mph52%29.92 "Hg10 mi
12:50 PM84 °FSunny.12 mph55%29.92 "Hg10 mi
12:20 PM84 °FSunny.6 mph55%29.95 "Hg10 mi
11:50 AM82 °FSunny.5 mph58%29.95 "Hg10 mi
11:20 AM81 °FSunny.6 mph70%29.95 "Hg10 mi
10:50 AM79 °FSunny.6 mph74%29.95 "Hg10 mi
10:20 AM77 °FSunny.7 mph74%29.95 "Hg10 mi
9:50 AM77 °FSunny.6 mph74%29.95 "Hg10 mi
9:20 AM77 °FSunny.3 mph74%29.95 "Hg10 mi
8:50 AM77 °FSunny.3 mph74%29.95 "Hg10 mi
8:20 AM77 °FSunny.2 mph74%29.95 "Hg10 mi
7:50 AM75 °FSunny.3 mph74%29.95 "Hg10 mi
7:20 AM73 °FSunny.3 mph78%29.92 "Hg10 mi
6:50 AM72 °FClear.6 mph78%29.92 "Hg10 mi
6:20 AM72 °FClear.3 mph78%29.92 "Hg10 mi
5:50 AM70 °FPassing clouds.3 mph78%29.92 "HgN/A
5:20 AM72 °FClear.1 mph78%29.89 "Hg10 mi
Weather by CustomWeather, © 2014

See weather overviewHow to use our weather pages